When you browse on this site, cookies collect data to enhance your experience and personalize the content and advertising you see.
Visit our Privacy Policy to learn more. By continuing to use the site, you agree to this use of cookies and data.
  • In Austria
  • List of Countries
  • For 7 days
  • Water Temperature
  • Weather Map
  • News
  • Weather Widgets
  • user-avatar
    Login

    Hourly Weather Malye Steblevichi

    Today, 4 June, Thursday

    Time Temperature Precipitation Wind Pressure Humidity
    00:00 +6°C° 0 mm 2 mps 740 mmHg 95%
    01:00 +6°C° 0 mm 2 mps 740 mmHg 96%
    02:00 +5°C° 0 mm 2 mps 740 mmHg 97%
    03:00 +5°C° 0 mm 2 mps 740 mmHg 98%
    04:00 +5°C° 0 mm 2 mps 740 mmHg 98%
    05:00 +5°C° 0 mm 2 mps 740 mmHg 99%
    06:00 +7°C° 0 mm 2 mps 740 mmHg 96%
    07:00 +8°C° 0 mm 3 mps 740 mmHg 93%
    08:00 +10°C° 0 mm 3 mps 740 mmHg 90%
    09:00 +11°C° 0.2 mm 3 mps 740 mmHg 85%
    10:00 +12°C° 0.2 mm 3 mps 740 mmHg 81%
    11:00 +13°C° 0.2 mm 3 mps 739 mmHg 77%
    12:00 +14°C° 0.6 mm 3 mps 739 mmHg 76%
    13:00 +14°C° 0.6 mm 3 mps 739 mmHg 76%
    14:00 +16°C° 0 mm 3 mps 739 mmHg 75%
    15:00 +16°C° 0.6 mm 3 mps 739 mmHg 76%
    16:00 +16°C° 0.6 mm 3 mps 739 mmHg 77%
    17:00 +14°C° 0.6 mm 3 mps 739 mmHg 78%
    18:00 +13°C° 0.5 mm 3 mps 739 mmHg 82%
    19:00 +12°C° 0.5 mm 3 mps 739 mmHg 86%
    20:00 +12°C° 0.5 mm 2 mps 739 mmHg 90%
    21:00 +10°C° 0 mm 2 mps 739 mmHg 92%
    22:00 +9°C° 0 mm 2 mps 739 mmHg 93%
    23:00 +9°C° 0 mm 2 mps 739 mmHg 94%

    Tomorrow, 5 June, Friday

    Time Temperature Precipitation Wind Pressure Humidity
    00:00 +8°C° 0 mm 2 mps 739 mmHg 94%
    01:00 +8°C° 0 mm 2 mps 739 mmHg 95%
    02:00 +8°C° 0 mm 1 mps 739 mmHg 95%
    03:00 +9°C° 0 mm 1 mps 739 mmHg 95%
    04:00 +9°C° 0 mm 1 mps 739 mmHg 95%
    05:00 +9°C° 0 mm 1 mps 739 mmHg 95%
    06:00 +11°C° 0 mm 1 mps 739 mmHg 91%
    07:00 +13°C° 0 mm 1 mps 739 mmHg 87%
    08:00 +15°C° 0 mm 2 mps 739 mmHg 83%
    09:00 +17°C° 0 mm 3 mps 739 mmHg 78%
    10:00 +18°C° 0 mm 3 mps 740 mmHg 73%
    11:00 +20°C° 0 mm 4 mps 740 mmHg 67%
    12:00 +20°C° 0.8 mm 4 mps 740 mmHg 73%
    13:00 +20°C° 0.8 mm 5 mps 740 mmHg 78%
    14:00 +20°C° 0.8 mm 5 mps 740 mmHg 84%
    15:00 +20°C° 0.4 mm 5 mps 740 mmHg 83%
    16:00 +20°C° 0.4 mm 5 mps 740 mmHg 82%
    17:00 +21°C° 0.4 mm 4 mps 740 mmHg 81%
    18:00 +19°C° 0.1 mm 4 mps 740 mmHg 84%
    19:00 +18°C° 0.1 mm 4 mps 740 mmHg 86%
    20:00 +17°C° 0.1 mm 3 mps 740 mmHg 89%
    21:00 +17°C° 0.2 mm 3 mps 740 mmHg 90%
    22:00 +16°C° 0.2 mm 3 mps 741 mmHg 92%
    23:00 +16°C° 0.2 mm 3 mps 741 mmHg 94%

    Day after tomorrow, 6 June, Saturday

    Time Temperature Precipitation Wind Pressure Humidity
    00:00 +16°C° 0 mm 3 mps 741 mmHg 94%
    01:00 +14°C° 0 mm 3 mps 741 mmHg 94%
    02:00 +14°C° 0 mm 3 mps 741 mmHg 94%
    03:00 +14°C° 0 mm 4 mps 741 mmHg 94%
    04:00 +15°C° 0 mm 4 mps 741 mmHg 93%
    05:00 +15°C° 0 mm 4 mps 741 mmHg 92%
    06:00 +15°C° 0 mm 5 mps 742 mmHg 92%
    07:00 +16°C° 0 mm 5 mps 743 mmHg 91%
    08:00 +17°C° 0 mm 5 mps 743 mmHg 90%
    09:00 +19°C° 0 mm 5 mps 744 mmHg 83%
    10:00 +21°C° 0 mm 5 mps 744 mmHg 75%
    11:00 +22°C° 0 mm 4 mps 745 mmHg 68%
    12:00 +23°C° 0 mm 4 mps 745 mmHg 65%
    13:00 +23°C° 0 mm 4 mps 745 mmHg 62%
    14:00 +25°C° 0 mm 4 mps 746 mmHg 59%
    15:00 +25°C° 0 mm 4 mps 746 mmHg 61%
    16:00 +25°C° 0 mm 3 mps 746 mmHg 62%
    17:00 +25°C° 0 mm 3 mps 746 mmHg 63%
    18:00 +23°C° 0 mm 2 mps 746 mmHg 69%
    19:00 +21°C° 0 mm 1 mps 747 mmHg 75%
    20:00 +19°C° 0 mm 1 mps 747 mmHg 81%
    21:00 +18°C° 0 mm 1 mps 747 mmHg 82%
    22:00 +18°C° 0 mm 1 mps 748 mmHg 83%
    23:00 +16°C° 0 mm 1 mps 748 mmHg 83%

    7 June, Sunday

    Time Temperature Precipitation Wind Pressure Humidity
    00:00 +16°C° 0 mm 2 mps 748 mmHg 86%
    01:00 +15°C° 0 mm 2 mps 748 mmHg 88%
    02:00 +15°C° 0 mm 2 mps 748 mmHg 90%
    03:00 +16°C° 0 mm 3 mps 748 mmHg 89%
    04:00 +16°C° 0 mm 3 mps 748 mmHg 89%
    05:00 +17°C° 0 mm 4 mps 748 mmHg 89%
    06:00 +18°C° 0.1 mm 4 mps 748 mmHg 87%
    07:00 +19°C° 0.1 mm 5 mps 748 mmHg 86%
    08:00 +19°C° 0.1 mm 5 mps 748 mmHg 85%
    09:00 +22°C° 0 mm 5 mps 748 mmHg 77%
    10:00 +24°C° 0 mm 6 mps 748 mmHg 69%
    11:00 +27°C° 0 mm 6 mps 748 mmHg 61%
    12:00 +27°C° 0 mm 6 mps 748 mmHg 59%
    13:00 +28°C° 0 mm 6 mps 748 mmHg 56%
    14:00 +28°C° 0 mm 6 mps 748 mmHg 54%
    15:00 +28°C° 0 mm 5 mps 748 mmHg 57%
    16:00 +28°C° 0 mm 5 mps 747 mmHg 60%
    17:00 +28°C° 0 mm 5 mps 747 mmHg 63%
    18:00 +26°C° 0 mm 4 mps 747 mmHg 69%
    19:00 +23°C° 0 mm 4 mps 747 mmHg 74%
    20:00 +22°C° 0 mm 4 mps 747 mmHg 80%
    21:00 +21°C° 0 mm 4 mps 748 mmHg 82%
    22:00 +20°C° 0 mm 4 mps 748 mmHg 84%
    23:00 +20°C° 0 mm 4 mps 749 mmHg 87%

    8 June, Monday

    Time Temperature Precipitation Wind Pressure Humidity
    00:00 +19°C° 0 mm 4 mps 749 mmHg 89%
    01:00 +18°C° 0 mm 3 mps 749 mmHg 92%
    02:00 +18°C° 0 mm 3 mps 749 mmHg 94%
    03:00 +17°C° 0 mm 3 mps 749 mmHg 93%
    04:00 +17°C° 0 mm 3 mps 748 mmHg 93%
    05:00 +17°C° 0 mm 3 mps 748 mmHg 92%
    06:00 +19°C° 0 mm 4 mps 749 mmHg 88%
    07:00 +20°C° 0 mm 4 mps 749 mmHg 84%
    08:00 +22°C° 0 mm 4 mps 749 mmHg 80%
    09:00 +25°C° 0 mm 4 mps 749 mmHg 73%
    10:00 +26°C° 0 mm 4 mps 749 mmHg 66%
    11:00 +28°C° 0 mm 5 mps 749 mmHg 59%
    12:00 +28°C° 0 mm 5 mps 749 mmHg 57%
    13:00 +29°C° 0 mm 5 mps 749 mmHg 56%
    14:00 +29°C° 0 mm 5 mps 748 mmHg 55%
    15:00 +28°C° 0 mm 5 mps 748 mmHg 58%
    16:00 +28°C° 0 mm 4 mps 748 mmHg 62%
    17:00 +28°C° 0 mm 4 mps 748 mmHg 66%
    18:00 +26°C° 0 mm 4 mps 748 mmHg 70%
    19:00 +24°C° 0 mm 3 mps 748 mmHg 75%
    20:00 +22°C° 0 mm 3 mps 748 mmHg 80%
    21:00 +21°C° 0 mm 3 mps 748 mmHg 83%
    22:00 +20°C° 0 mm 3 mps 748 mmHg 86%
    23:00 +19°C° 0 mm 3 mps 748 mmHg 89%

    9 June, Tuesday

    Time Temperature Precipitation Wind Pressure Humidity
    00:00 +19°C° 0 mm 3 mps 748 mmHg 90%
    01:00 +19°C° 0 mm 3 mps 748 mmHg 91%
    02:00 +19°C° 0 mm 3 mps 748 mmHg 93%
    03:00 +19°C° 0 mm 4 mps 748 mmHg 93%
    04:00 +19°C° 0 mm 4 mps 748 mmHg 92%
    05:00 +19°C° 0 mm 4 mps 748 mmHg 92%
    06:00 +21°C° 0 mm 4 mps 748 mmHg 87%
    07:00 +22°C° 0 mm 4 mps 748 mmHg 81%
    08:00 +23°C° 0 mm 4 mps 748 mmHg 76%
    09:00 +26°C° 0 mm 5 mps 748 mmHg 70%
    10:00 +27°C° 0 mm 6 mps 748 mmHg 64%
    11:00 +28°C° 0 mm 6 mps 748 mmHg 59%
    12:00 +29°C° 0 mm 6 mps 748 mmHg 58%
    13:00 +29°C° 0 mm 6 mps 748 mmHg 57%
    14:00 +30°C° 0 mm 6 mps 748 mmHg 56%
    15:00 +29°C° 0.2 mm 5 mps 747 mmHg 60%
    16:00 +29°C° 0.2 mm 4 mps 747 mmHg 64%
    17:00 +29°C° 0.2 mm 3 mps 747 mmHg 68%
    18:00 +27°C° 0.5 mm 3 mps 747 mmHg 72%
    19:00 +25°C° 0.5 mm 3 mps 747 mmHg 77%
    20:00 +24°C° 0.5 mm 3 mps 748 mmHg 82%
    21:00 +22°C° 0.4 mm 3 mps 748 mmHg 84%
    22:00 +21°C° 0.4 mm 3 mps 748 mmHg 86%
    23:00 +20°C° 0.4 mm 3 mps 748 mmHg 89%
    Show more